Weather History for Chipley, FL

Change the Weather History Date:

Sunday, January 20, 2013

  Actual Average (KMAI) Record (KMAI)
Temperature  
Mean Temperature 56 °F 50 °F  
Max Temperature 64 °F 61 °F 75 °F (1999)
Min Temperature 48 °F 39 °F 27 °F (2004)
Degree Days  
Heating Degree Days 9    
Month to date heating degree days  
Since 1 July heating degree days  
Cooling Degree Days 0    
Month to date cooling degree days  
Year to date cooling degree days  
Growing Degree Days 6 (Base 50)    
Moisture  
Dew Point 47 °F    
Average Humidity 73    
Maximum Humidity 100    
Minimum Humidity 48    
Precipitation  
Precipitation 0.00 in 0.15 in 0.10 in (2012)
Month to date precipitation 3.01  
Year to date precipitation 3.01  
Sea Level Pressure  
Sea Level Pressure 30.22 in    
Wind  
Wind Speed 2 mph (NE)    
Max Wind Speed 6 mph    
Max Gust Speed -    
Visibility 8 miles    
Events      
T = Trace of Precipitation, MM = Missing Value Source: NWS Daily Summary

Daily Weather History Graph

Daily Weather History Graph

Search for Another Location

Airport:

Trip Planner

Search our weather history database for the weather conditions in past years. The results will help you decide how hot, cold, wet, or windy it might be!

Date:

Astronomy

Jan. 20, 2013 Rise Set
Actual Time 6:39 AM CST 5:07 PM CST
Civil Twilight 6:13 AM CST 5:33 PM CST
Nautical Twilight 5:44 AM CST 6:03 PM CST
Astronomical Twilight 5:15 AM CST 6:32 PM CST
Moon 12:07 PM CST (1/20) 1:13 AM CST (1/20)
Length of Visible Light 11h 20m
Length of Day
10h 28m
Waxing Gibbous, 66% of the Moon is Illuminated
Jan 20
Waxing Gibbous
Jan 26
Full
Feb 3
Last Quarter
Feb 10
New
Feb 17
First Quarter

Hourly Weather History & Observations

Time (CST) Temp. Dew Point Humidity Pressure Visibility Wind Dir Wind Speed Gust Speed Precip Events Conditions
12:15 AM 55.4 °F 48.2 °F 77% 30.27 in 10.0 mi Calm Calm - N/A   Clear
12:35 AM 55.4 °F 48.2 °F 77% 30.26 in 10.0 mi Calm Calm - N/A   Clear
12:55 AM 53.6 °F 48.2 °F 82% 30.26 in 10.0 mi Calm Calm - N/A   Clear
1:15 AM 53.6 °F 48.2 °F 82% 30.26 in 10.0 mi Calm Calm - N/A   Clear
1:35 AM 53.6 °F 48.2 °F 82% 30.26 in 10.0 mi Calm Calm - N/A   Clear
1:55 AM 53.6 °F 48.2 °F 82% 30.27 in 10.0 mi Calm Calm - N/A   Clear
2:15 AM 51.8 °F 48.2 °F 88% 30.27 in 10.0 mi Calm Calm - N/A   Clear
2:55 AM 51.8 °F 48.2 °F 88% 30.26 in 10.0 mi Calm Calm - N/A   Clear
3:15 AM 51.8 °F 48.2 °F 88% 30.26 in 10.0 mi Calm Calm - N/A   Clear
3:35 AM 51.8 °F 48.2 °F 88% 30.25 in 10.0 mi Calm Calm - N/A   Clear
3:55 AM 51.8 °F 48.2 °F 88% 30.25 in 10.0 mi Calm Calm - N/A   Clear
4:15 AM 51.8 °F 48.2 °F 88% 30.25 in 8.0 mi Calm Calm - N/A   Clear
4:35 AM 51.8 °F 48.2 °F 88% 30.25 in 10.0 mi Calm Calm - N/A   Clear
4:55 AM 50.0 °F 48.2 °F 94% 30.25 in 9.0 mi North 3.5 mph - N/A   Clear
5:15 AM 51.8 °F 48.2 °F 88% 30.25 in 8.0 mi North 3.5 mph - N/A   Clear
5:35 AM 51.8 °F 48.2 °F 88% 30.25 in 7.0 mi NNE 4.6 mph - N/A   Clear
5:55 AM 51.8 °F 48.2 °F 88% 30.25 in 5.0 mi NNE 3.5 mph - N/A   Clear
6:15 AM 51.8 °F 48.2 °F 88% 30.25 in 4.0 mi NE 5.8 mph - N/A   Clear
6:35 AM 50.0 °F 48.2 °F 94% 30.25 in 2.5 mi NE 5.8 mph - N/A   Scattered Clouds
6:55 AM 48.2 °F 48.2 °F 100% 30.26 in 0.8 mi NE 5.8 mph - N/A   Overcast
7:15 AM 48.2 °F 46.4 °F 93% 30.26 in 0.2 mi NNE 5.8 mph - N/A   Overcast
7:35 AM 48.2 °F 48.2 °F 100% 30.26 in 0.2 mi NNE 4.6 mph - N/A   Overcast
7:55 AM 48.2 °F 48.2 °F 100% 30.27 in 0.2 mi NNE 5.8 mph - N/A   Overcast
8:15 AM 48.2 °F 48.2 °F 100% 30.27 in 0.5 mi NNE 4.6 mph - N/A   Overcast
8:35 AM 48.2 °F 48.2 °F 100% 30.28 in 0.5 mi NNE 3.5 mph - N/A   Overcast
8:55 AM 50.0 °F 48.2 °F 94% 30.28 in 2.5 mi North 3.5 mph - N/A   Mostly Cloudy
9:15 AM 51.8 °F 48.2 °F 88% 30.28 in 3.0 mi NNE 3.5 mph - N/A   Mostly Cloudy
9:35 AM 53.6 °F 50.0 °F 88% 30.28 in 5.0 mi Calm Calm - N/A   Partly Cloudy
9:55 AM 55.4 °F 48.2 °F 77% 30.28 in 8.0 mi NNE 3.5 mph - N/A   Clear
10:15 AM 57.2 °F 48.2 °F 72% 30.28 in 10.0 mi NNE 4.6 mph - N/A   Clear
10:35 AM 59.0 °F 48.2 °F 67% 30.27 in 10.0 mi Calm Calm - N/A   Clear
10:55 AM 60.8 °F 48.2 °F 63% 30.28 in 10.0 mi Calm Calm - N/A   Clear
11:15 AM 60.8 °F 48.2 °F 63% 30.27 in 10.0 mi NW 3.5 mph - N/A   Clear
11:35 AM 60.8 °F 48.2 °F 63% 30.26 in 10.0 mi NE 5.8 mph - N/A   Clear
11:55 AM 62.6 °F 48.2 °F 59% 30.24 in 10.0 mi Calm Calm - N/A   Clear
12:15 PM 62.6 °F 48.2 °F 59% 30.23 in 10.0 mi NNE 4.6 mph - N/A   Clear
12:35 PM 62.6 °F 48.2 °F 59% 30.21 in 10.0 mi NNW 4.6 mph - N/A   Clear
12:55 PM 62.6 °F 46.4 °F 55% 30.21 in 10.0 mi NNE 4.6 mph - N/A   Clear
1:15 PM 62.6 °F 46.4 °F 55% 30.19 in 10.0 mi NNE 5.8 mph - N/A   Clear
1:35 PM 62.6 °F 46.4 °F 55% 30.18 in 9.0 mi Calm Calm - N/A   Clear
1:55 PM 62.6 °F 46.4 °F 55% 30.18 in 10.0 mi NNE 4.6 mph - N/A   Clear
2:15 PM 62.6 °F 46.4 °F 55% 30.18 in 10.0 mi North 3.5 mph - N/A   Clear
2:35 PM 62.6 °F 44.6 °F 52% 30.17 in 10.0 mi ENE 3.5 mph - N/A   Clear
2:55 PM 62.6 °F 44.6 °F 52% 30.17 in 10.0 mi NNW 4.6 mph - N/A   Clear
3:15 PM 64.4 °F 44.6 °F 49% 30.16 in 10.0 mi NNW 3.5 mph - N/A   Clear
3:35 PM 62.6 °F 44.6 °F 52% 30.16 in 10.0 mi NNE 3.5 mph - N/A   Clear
3:55 PM 62.6 °F 44.6 °F 52% 30.16 in 10.0 mi Calm Calm - N/A   Clear
4:15 PM 62.6 °F 44.6 °F 52% 30.16 in 10.0 mi NW 3.5 mph - N/A   Clear
4:35 PM 62.6 °F 44.6 °F 52% 30.16 in 10.0 mi Calm Calm - N/A   Clear
4:55 PM 62.6 °F 44.6 °F 52% 30.16 in 10.0 mi Calm Calm - N/A   Clear
5:15 PM 62.6 °F 42.8 °F 48% 30.16 in 10.0 mi Calm Calm - N/A   Clear
5:35 PM 60.8 °F 42.8 °F 52% 30.16 in 10.0 mi Calm Calm - N/A   Clear
5:55 PM 60.8 °F 42.8 °F 52% 30.16 in 10.0 mi Calm Calm - N/A   Clear
6:15 PM 60.8 °F 42.8 °F 52% 30.17 in 10.0 mi Calm Calm - N/A   Clear
6:35 PM 60.8 °F 42.8 °F 52% 30.17 in 10.0 mi Calm Calm - N/A   Clear
6:55 PM 59.0 °F 48.2 °F 67% 30.18 in 10.0 mi South 3.5 mph - N/A   Clear
7:15 PM 59.0 °F 48.2 °F 67% 30.18 in 10.0 mi South 5.8 mph - N/A   Clear
7:35 PM 57.2 °F 48.2 °F 72% 30.19 in 10.0 mi SSE 5.8 mph - N/A   Clear
7:55 PM 57.2 °F 48.2 °F 72% 30.19 in 10.0 mi Calm Calm - N/A   Clear
8:15 PM 57.2 °F 48.2 °F 72% 30.19 in 10.0 mi South 5.8 mph - N/A   Clear
8:35 PM 57.2 °F 48.2 °F 72% 30.19 in 10.0 mi South 5.8 mph - N/A   Clear
8:55 PM 57.2 °F 46.4 °F 67% 30.20 in 10.0 mi South 5.8 mph - N/A   Clear
9:15 PM 57.2 °F 46.4 °F 67% 30.20 in 10.0 mi South 5.8 mph - N/A   Clear
9:35 PM 55.4 °F 48.2 °F 77% 30.20 in 10.0 mi South 4.6 mph - N/A   Clear
9:55 PM 55.4 °F 48.2 °F 77% 30.21 in 10.0 mi South 3.5 mph - N/A   Clear
10:15 PM 55.4 °F 48.2 °F 77% 30.20 in 9.0 mi South 4.6 mph - N/A   Clear
10:35 PM 55.4 °F 48.2 °F 77% 30.20 in 10.0 mi South 4.6 mph - N/A   Clear
10:55 PM 55.4 °F 48.2 °F 77% 30.19 in 10.0 mi South 3.5 mph - N/A   Clear
11:15 PM 55.4 °F 48.2 °F 77% 30.19 in 10.0 mi South 3.5 mph - N/A   Clear
11:35 PM 55.4 °F 48.2 °F 77% 30.18 in 10.0 mi South 3.5 mph - N/A   Clear
11:55 PM 55.4 °F 48.2 °F 77% 30.17 in 10.0 mi South 4.6 mph - N/A   Clear